Location: Boone Canyon
(38.3180°N, 119.2504°W)
Time: 18:18:38
(UTC+00:00)

deb Chang Zheng 4 - Pass Details

Date: 18 September 2020
Orbit: 602 x 626 km, 98.6° (Epoch: 19 October)

Event Time Altitude Azimuth Distance (km) Brightness Sun altitude
Rises 12:41:21 0° 8° (N) 2,893 7.3 -12.6°
Reaches altitude 10° 12:43:34 10° 5° (N) 1,979 6.4 -12.1°
Maximum altitude 12:47:47 57° 286° (WNW) 719 3.6 -11.3°
Drops below altitude 10° 12:51:56 10° 208° (SSW) 1,951 5.8 -10.5°
Sets 12:54:07 0° 204° (SSW) 2,847 6.6 -10.1°
